Weather History for PAKW - December, 2012

Change the Weather History Date:

Monday, December 31, 2012

  Actual Average Record
Temperature  
Mean Temperature 40 °F -  
Max Temperature 44 °F 37 °F 50 °F (2001)
Min Temperature 36 °F 30 °F 14 °F (2004)
Degree Days  
Heating Degree Days 25    
Moisture  
Dew Point 37 °F    
Average Humidity 85    
Maximum Humidity 93    
Minimum Humidity 76    
Precipitation  
Precipitation 0.10 in - - ()
Sea Level Pressure  
Sea Level Pressure 30.11 in    
Wind  
Wind Speed 5 mph (South)    
Max Wind Speed 18 mph    
Max Gust Speed 31 mph    
Visibility 9 miles    
Events Rain    
Averages and records for this station are not official NWS values.
T = Trace of Precipitation, MM = Missing Value Source: NWS Daily Summary

Daily Weather History Graph

Daily Weather History Graph

Search for Another Location

Airport or City:

Trip Planner

Search our weather history database for the weather conditions in past years. The results will help you decide how hot, cold, wet, or windy it might be!

Date:

Astronomy

Dec. 31, 2012 Rise Set
Actual Time 8:20 AM AKST 3:30 PM AKST
Civil Twilight 7:34 AM AKST 4:16 PM AKST
Nautical Twilight 6:46 AM AKST 5:05 PM AKST
Astronomical Twilight 6:01 AM AKST 5:49 PM AKST
Moon 7:51 PM AKST (12/31) 9:27 AM AKST (12/31)
Length of Visible Light 8h 42m
Length of Day
7h 09m
Waning Gibbous, 89% of the Moon is Illuminated
Dec 31
Waning Gibbous
Jan 4
Last Quarter
Jan 11
New
Jan 18
First Quarter
Jan 26
Full

Hourly Weather History & Observations

Time (AKST) Temp. Windchill Dew Point Humidity Pressure Visibility Wind Dir Wind Speed Gust Speed Precip Events Conditions
12:53 AM 42.1 °F 40.2 °F 39.0 °F 89% 29.72 in 10.0 mi Variable 3.5 mph - 0.03 in Rain Light Rain
1:49 AM 42.8 °F 40.1 °F 39.2 °F 87% 29.75 in 10.0 mi South 4.6 mph - 0.02 in Rain Light Rain
1:53 AM 43.0 °F 40.3 °F 39.0 °F 86% 29.76 in 9.0 mi Variable 4.6 mph - 0.03 in Rain Light Rain
2:04 AM 42.8 °F 39.3 °F 39.2 °F 87% 29.77 in 9.0 mi Variable 5.8 mph - 0.01 in Rain Light Rain
2:27 AM 42.8 °F 36.6 °F 41.0 °F 93% 29.80 in 6.0 mi SSW 11.5 mph 19.6 mph 0.02 in Rain Light Rain
2:32 AM 42.8 °F 37.0 °F 41.0 °F 93% 29.81 in 7.0 mi SSW 10.4 mph 19.6 mph 0.02 in Rain Light Rain
2:53 AM 43.0 °F 38.2 °F 41.0 °F 93% 29.83 in 7.0 mi SSW 8.1 mph 19.6 mph 0.03 in Rain Light Rain
3:53 AM 41.0 °F 32.2 °F 37.9 °F 89% 29.90 in 10.0 mi SW 18.4 mph 31.1 mph 0.00 in   Overcast
4:53 AM 42.1 °F 36.6 °F 39.0 °F 89% 29.99 in 10.0 mi SSW 9.2 mph 23.0 mph N/A   Overcast
5:53 AM 43.0 °F 38.2 °F 39.0 °F 86% 30.04 in 10.0 mi SW 8.1 mph 20.7 mph 0.00 in   Overcast
6:53 AM 43.0 °F 40.3 °F 37.0 °F 80% 30.10 in 10.0 mi SSW 4.6 mph - N/A   Overcast
7:53 AM 41.0 °F 39.0 °F 37.0 °F 86% 30.14 in 10.0 mi South 3.5 mph - N/A   Overcast
8:53 AM 41.0 °F 39.0 °F 37.9 °F 89% 30.19 in 7.0 mi South 3.5 mph - 0.00 in Rain Light Rain
9:33 AM 42.8 °F 40.1 °F 37.4 °F 81% 30.21 in 6.0 mi Variable 4.6 mph - 0.00 in Rain Light Rain
9:53 AM 41.0 °F 39.0 °F 39.0 °F 93% 30.22 in 5.0 mi SSW 3.5 mph - 0.00 in Rain Light Rain
10:42 AM 42.8 °F - 37.4 °F 81% 30.25 in 10.0 mi Calm Calm - 0.01 in   Overcast
10:53 AM 42.1 °F 39.2 °F 37.9 °F 85% 30.25 in 10.0 mi Variable 4.6 mph - 0.01 in   Overcast
11:53 AM 42.1 °F 40.2 °F 37.9 °F 85% 30.26 in 10.0 mi Variable 3.5 mph - N/A   Overcast
12:53 PM 43.0 °F 41.3 °F 37.0 °F 80% 30.26 in 10.0 mi Variable 3.5 mph - N/A   Overcast
1:53 PM 44.1 °F - 37.0 °F 76% 30.27 in 10.0 mi Calm Calm - N/A   Mostly Cloudy
2:53 PM 42.1 °F 39.2 °F 36.0 °F 79% 30.28 in 10.0 mi SSE 4.6 mph - N/A   Overcast
4:53 PM 42.1 °F 39.2 °F 35.1 °F 76% 30.33 in 10.0 mi SSE 4.6 mph - N/A   Overcast
5:53 PM 41.0 °F - 34.0 °F 76% 30.34 in 10.0 mi Calm Calm - N/A   Overcast
6:53 PM 39.9 °F 37.8 °F 34.0 °F 79% 30.32 in 10.0 mi South 3.5 mph - N/A   Mostly Cloudy
7:53 PM 37.9 °F 35.5 °F 34.0 °F 86% 30.31 in 10.0 mi North 3.5 mph - N/A   Mostly Cloudy
8:53 PM 36.0 °F 33.3 °F 33.1 °F 89% 30.31 in 10.0 mi ENE 3.5 mph - N/A   Clear
9:53 PM 36.0 °F - 33.1 °F 89% 30.30 in 10.0 mi Calm Calm - N/A   Clear
11:53 PM 37.0 °F 34.5 °F 33.1 °F 86% 30.29 in 10.0 mi Variable 3.5 mph - N/A   Clear